| time (UTC) | temp F | wind direction | speed knots | gust knots | rain 1hr in | rain 24hr in | rain mn in | humidity % | barometer mb |
| 20260905212357 | 148 | 116 | 1.7 | 4.3 | 0.00 | 0.00 | 0.00 | 100 | 1010.5 |
| 20260905211841 | 148 | 102 | 0.0 | 2.6 | 0.00 | 0.00 | 0.00 | 100 | 1010.5 |
| 20260905211319 | 149 | 102 | 0.0 | 3.5 | 0.00 | 0.00 | 0.00 | 100 | 1010.6 |
| 20260905210757 | 149 | 102 | 0.0 | 6.1 | 0.00 | 0.00 | 0.00 | 100 | 1010.6 |
| 20260905210528 | 149 | 136 | 3.5 | 6.1 | 0.00 | 0.00 | 0.00 | 100 | 1010.7 |
| 20260905205759 | 150 | 125 | 1.7 | 5.2 | 0.00 | 0.00 | 0.00 | 100 | 1010.7 |
| 20260905205258 | 150 | 237 | 0.9 | 7.8 | 0.00 | 0.00 | 0.00 | 100 | 1010.8 |
| 20260905204744 | 150 | 139 | 0.9 | 7.8 | 0.00 | 0.00 | 0.00 | 100 | 1010.9 |
| 20260905204242 | 150 | 82 | 0.0 | 7.0 | 0.00 | 0.00 | 0.00 | 100 | 1010.9 |
| 20260905203741 | 149 | 161 | 3.5 | 7.0 | 0.00 | 0.00 | 0.00 | 100 | 1011.1 |
| 20260905203241 | 150 | 180 | 0.0 | 6.1 | 0.00 | 0.00 | 0.00 | 100 | 1011.2 |
| 20260905202732 | 150 | 232 | 0.0 | 5.2 | 0.00 | 0.00 | 0.00 | 100 | 1011.1 |
| 20260905202232 | 150 | 213 | 0.0 | 6.1 | 0.00 | 0.00 | 0.00 | 100 | 1011.3 |
| 20260905201715 | 149 | 153 | 1.7 | 6.1 | 0.00 | 0.00 | 0.00 | 100 | 1011.4 |
| 20260905201215 | 150 | 180 | 2.6 | 3.5 | 0.00 | 0.00 | 0.00 | 100 | 1011.5 |
| 20260905200703 | 150 | 9 | 0.0 | 1.7 | 0.00 | 0.00 | 0.00 | 100 | 1011.6 |
| 20260905200431 | 149 | 9 | 0.0 | 2.6 | 0.00 | 0.00 | 0.00 | 100 | 1011.7 |
| 20260905195657 | 149 | 11 | 1.7 | 5.2 | 0.00 | 0.00 | 0.00 | 100 | 1011.7 |
| 20260905195157 | 150 | 125 | 0.9 | 7.0 | 0.00 | 0.00 | 0.00 | 100 | 1011.9 |
| 20260905194656 | 150 | 201 | 1.7 | 7.0 | 0.00 | 0.00 | 0.00 | 100 | 1011.9 |
| 20260905194143 | 150 | 296 | 0.0 | 7.0 | 0.00 | 0.00 | 0.00 | 100 | 1012.0 |
| 20260905193641 | 149 | 22 | 0.0 | 7.8 | 0.00 | 0.00 | 0.00 | 100 | 1012.1 |
| 20260905193139 | 149 | 133 | 3.5 | 7.8 | 0.00 | 0.00 | 0.00 | 100 | 1012.2 |
| 20260905192635 | 149 | 153 | 3.5 | 7.8 | 0.00 | 0.00 | 0.00 | 100 | 1012.3 |
| 20260905192135 | 149 | 191 | 3.5 | 7.0 | 0.00 | 0.00 | 0.00 | 100 | 1012.4 |
| 20260905191630 | 150 | 116 | 3.5 | 4.3 | 0.00 | 0.00 | 0.00 | 100 | 1012.5 |
| 20260905191358 | 150 | 185 | 0.0 | 3.5 | 0.00 | 0.00 | 0.00 | 100 | 1012.5 |
| 20260905190614 | 149 | 168 | 1.7 | 6.1 | 0.00 | 0.00 | 0.00 | 100 | 1012.8 |
| 20260905190113 | 149 | 175 | 2.6 | 8.7 | 0.00 | 0.00 | 0.00 | 100 | 1012.9 |
| 20260905185611 | 149 | 18 | 4.3 | 8.7 | 0.00 | 0.00 | 0.00 | 100 | 1012.9 |
| 20260905185112 | 149 | 1 | 0.9 | 8.7 | 0.00 | 0.00 | 0.00 | 100 | 1013.0 |
| 20260905184606 | 148 | 223 | 0.0 | 8.7 | 0.00 | 0.00 | 0.00 | 100 | 1013.0 |
| 20260905184333 | 149 | 45 | 0.9 | 9.6 | 0.00 | 0.00 | 0.00 | 100 | 1013.2 |
| 20260905183602 | 148 | 177 | 3.5 | 9.6 | 0.00 | 0.00 | 0.00 | 100 | 1013.3 |
| 20260905183102 | 149 | 156 | 2.6 | 5.2 | 0.00 | 0.00 | 0.00 | 100 | 1013.4 |
| 20260905182603 | 149 | 115 | 0.0 | 7.8 | 0.00 | 0.00 | 0.00 | 100 | 1013.5 |
| 20260905182101 | 148 | 157 | 1.7 | 7.8 | 0.00 | 0.00 | 0.00 | 100 | 1013.6 |
| 20260905181601 | 149 | 139 | 0.0 | 6.1 | 0.00 | 0.00 | 0.00 | 100 | 1013.6 |
| 20260905181059 | 149 | 151 | 0.0 | 9.6 | 0.00 | 0.00 | 0.00 | 100 | 1013.8 |
| 20260905180556 | 148 | 108 | 2.6 | 9.6 | 0.00 | 0.00 | 0.00 | 100 | 1014.0 |
| 20260905180328 | 148 | 156 | 5.2 | 7.8 | 0.00 | 0.00 | 0.00 | 100 | 1014.0 |
| 20260905175557 | 148 | 174 | 5.2 | 10.4 | 0.00 | 0.00 | 0.00 | 100 | 1014.1 |
| 20260905175057 | 148 | 130 | 3.5 | 10.4 | 0.00 | 0.00 | 0.00 | 100 | 1014.3 |
| 20260905174557 | 148 | 26 | 0.9 | 7.0 | 0.00 | 0.00 | 0.00 | 100 | 1014.3 |
| 20260905174057 | 147 | 142 | 1.7 | 6.1 | 0.00 | 0.00 | 0.00 | 100 | 1014.5 |
| 20260905173556 | 148 | 146 | 2.6 | 6.1 | 0.00 | 0.00 | 0.00 | 100 | 1014.4 |
| 20260905173057 | 148 | 14 | 0.0 | 6.1 | 0.00 | 0.00 | 0.00 | 100 | 1014.5 |
| 20260905172557 | 148 | 157 | 0.9 | 4.3 | 0.00 | 0.00 | 0.00 | 100 | 1014.5 |
| 20260905172053 | 148 | 167 | 2.6 | 4.3 | 0.00 | 0.00 | 0.00 | 100 | 1014.7 |
| 20260905171539 | 148 | 147 | 0.9 | 5.2 | 0.00 | 0.00 | 0.00 | 100 | 1014.6 |
| 20260905171039 | 147 | 135 | 3.5 | 8.7 | 0.00 | 0.00 | 0.00 | 100 | 1014.7 |
| 20260905170808 | 147 | 91 | 5.2 | 8.7 | 0.00 | 0.00 | 0.00 | 100 | 1014.7 |
| 20260905170029 | 147 | 115 | 0.0 | 7.8 | 0.00 | 0.00 | 0.00 | 100 | 1014.7 |
| 20260905165801 | 148 | 149 | 0.9 | 7.8 | 0.00 | 0.00 | 0.00 | 100 | 1014.7 |
| 20260905165021 | 148 | 133 | 3.5 | 5.2 | 0.00 | 0.00 | 0.00 | 100 | 1014.8 |
| 20260905164516 | 147 | 109 | 0.0 | 7.8 | 0.00 | 0.00 | 0.00 | 100 | 1014.9 |
| 20260905164006 | 147 | 149 | 0.0 | 7.8 | 0.00 | 0.00 | 0.00 | 100 | 1014.9 |
| 20260905163734 | 147 | 161 | 2.6 | 7.8 | 0.00 | 0.00 | 0.00 | 100 | 1014.9 |
| 20260905163003 | 147 | 150 | 4.3 | 7.8 | 0.00 | 0.00 | 0.00 | 100 | 1014.8 |
| 20260905162502 | 147 | 143 | 1.7 | 7.0 | 0.00 | 0.00 | 0.00 | 100 | 1014.8 |
| 20260905162232 | 147 | 180 | 4.3 | 7.0 | 0.00 | 0.00 | 0.00 | 100 | 1014.8 |
| 20260905161732 | 147 | 125 | 0.0 | 7.0 | 0.00 | 0.00 | 0.00 | 100 | 1014.9 |
| 20260905160959 | 146 | 182 | 4.3 | 7.0 | 0.00 | 0.00 | 0.00 | 100 | 1015.0 |
| 20260905160729 | 147 | 140 | 3.5 | 7.0 | 0.00 | 0.00 | 0.00 | 100 | 1014.9 |
| 20260905155959 | 146 | 146 | 0.0 | 9.6 | 0.00 | 0.00 | 0.00 | 100 | 1014.9 |
| 20260905155456 | 147 | 170 | 0.0 | 9.6 | 0.00 | 0.00 | 0.00 | 100 | 1014.9 |
| 20260905154957 | 147 | 188 | 4.3 | 7.8 | 0.00 | 0.00 | 0.00 | 100 | 1014.8 |
| 20260905154458 | 146 | 217 | 2.6 | 7.8 | 0.00 | 0.00 | 0.00 | 100 | 1014.8 |
| 20260905153958 | 146 | 151 | 2.6 | 7.8 | 0.00 | 0.00 | 0.00 | 100 | 1014.8 |
| 20260905153457 | 146 | 244 | 4.3 | 7.8 | 0.00 | 0.00 | 0.00 | 100 | 1014.8 |
| 20260905152956 | 146 | 151 | 1.7 | 7.8 | 0.00 | 0.00 | 0.00 | 100 | 1014.9 |
| 20260905152727 | 146 | 239 | 5.2 | 7.8 | 0.00 | 0.00 | 0.00 | 100 | 1014.9 |
| 20260905151957 | 147 | 229 | 1.7 | 7.0 | 0.00 | 0.00 | 0.00 | 100 | 1014.9 |
| 20260905151458 | 146 | 246 | 0.0 | 6.1 | 0.00 | 0.00 | 0.00 | 100 | 1014.8 |
| 20260905150957 | 146 | 236 | 0.9 | 6.1 | 0.00 | 0.00 | 0.00 | 100 | 1014.9 |
| 20260905150457 | 145 | 222 | 0.0 | 7.0 | 0.00 | 0.00 | 0.00 | 100 | 1014.9 |
| 20260905145956 | 145 | 164 | 3.5 | 7.0 | 0.00 | 0.00 | 0.00 | 100 | 1014.9 |
| 20260905145456 | 145 | 187 | 0.0 | 6.1 | 0.00 | 0.00 | 0.00 | 100 | 1014.9 |
| 20260905144951 | 145 | 123 | 3.5 | 6.1 | 0.00 | 0.00 | 0.00 | 100 | 1014.8 |
| 20260905144451 | 145 | 137 | 0.0 | 5.2 | 0.00 | 0.00 | 0.00 | 100 | 1014.7 |
| 20260905143942 | 145 | 170 | 0.0 | 5.2 | 0.00 | 0.00 | 0.00 | 100 | 1014.7 |
| 20260905143439 | 145 | 136 | 0.0 | 5.2 | 0.00 | 0.00 | 0.00 | 100 | 1014.8 |
| 20260905143210 | 145 | 220 | 0.9 | 5.2 | 0.00 | 0.00 | 0.00 | 100 | 1014.7 |
| 20260905142712 | 145 | 113 | 0.0 | 2.6 | 0.00 | 0.00 | 0.00 | 100 | 1014.7 |
| 20260905141919 | 145 | 113 | 0.0 | 2.6 | 0.00 | 0.00 | 0.00 | 100 | 1014.7 |
| 20260905141344 | 144 | 113 | 0.0 | 5.2 | 0.00 | 0.00 | 0.00 | 100 | 1014.7 |
| 20260905140833 | 144 | 125 | 0.9 | 5.2 | 0.00 | 0.00 | 0.00 | 100 | 1014.6 |
| 20260905140331 | 144 | 154 | 3.5 | 4.3 | 0.00 | 0.00 | 0.00 | 100 | 1014.6 |
| 20260905135830 | 144 | 154 | 0.0 | 4.3 | 0.00 | 0.00 | 0.00 | 100 | 1014.6 |
| 20260905135330 | 144 | 181 | 0.0 | 0.0 | 0.00 | 0.00 | 0.00 | 100 | 1014.5 |
| 20260905134830 | 144 | 181 | 0.0 | 0.0 | 0.00 | 0.00 | 0.00 | 2 | 1014.4 |
| 20260905134311 | 144 | 181 | 0.0 | 0.0 | 0.00 | 0.00 | 0.00 | 4 | 1014.4 |
| 20260905133808 | 144 | 181 | 0.0 | 0.0 | 0.00 | 0.00 | 0.00 | 14 | 1014.4 |
| 20260905133300 | 143 | 181 | 0.0 | 0.0 | 0.00 | 0.00 | 0.00 | 29 | 1014.5 |
| 20260905132754 | 143 | 181 | 0.0 | 0.0 | 0.00 | 0.00 | 0.00 | 47 | 1014.5 |
| 20260905132242 | 143 | 181 | 0.0 | 0.0 | 0.00 | 0.00 | 0.00 | 65 | 1014.4 |
| 20260905131741 | 143 | 181 | 0.0 | 0.0 | 0.00 | 0.00 | 0.00 | 96 | 1014.3 |
| 20260905131509 | 143 | 181 | 0.0 | 0.0 | 0.00 | 0.00 | 0.00 | 100 | 1014.3 |
| 20260905130714 | 143 | 181 | 0.0 | 0.0 | 0.00 | 0.00 | 0.00 | 100 | 1014.3 |
| 20260905130215 | 143 | 181 | 0.0 | 0.0 | 0.00 | 0.00 | 0.00 | 100 | 1014.2 |
| 20260905125714 | 143 | 181 | 0.0 | 0.0 | 0.00 | 0.00 | 0.00 | 100 | 1014.2 |
| 20260905125212 | 143 | 181 | 0.0 | 0.0 | 0.00 | 0.00 | 0.00 | 100 | 1014.2 |
| 20260905124658 | 143 | 181 | 0.0 | 0.0 | 0.00 | 0.00 | 0.00 | 100 | 1014.0 |
| 20260905124157 | 143 | 181 | 0.0 | 0.0 | 0.00 | 0.00 | 0.00 | 100 | 1013.9 |
| 20260905123635 | 143 | 181 | 0.0 | 0.0 | 0.00 | 0.00 | 0.00 | 100 | 1013.9 |
| 20260905123127 | 142 | 181 | 0.0 | 0.0 | 0.00 | 0.00 | 0.00 | 100 | 1013.9 |
| 20260905122617 | 143 | 181 | 0.0 | 0.0 | 0.00 | 0.00 | 0.00 | 100 | 1013.9 |
| 20260905122117 | 142 | 181 | 0.0 | 0.0 | 0.00 | 0.00 | 0.00 | 100 | 1013.9 |
| 20260905121554 | 142 | 181 | 0.0 | 0.0 | 0.00 | 0.00 | 0.00 | 100 | 1013.9 |
| 20260905121041 | 143 | 181 | 0.0 | 0.0 | 0.00 | 0.00 | 0.00 | 100 | 1013.8 |
| 20260905120539 | 142 | 181 | 0.0 | 0.0 | 0.00 | 0.00 | 0.00 | 100 | 1013.8 |
| 20260905120248 | 142 | 181 | 0.0 | 0.0 | 0.00 | 0.00 | 0.00 | 100 | 1013.8 |
| 20260905115512 | 142 | 181 | 0.0 | 0.0 | 0.00 | 0.00 | 0.00 | 100 | 1013.6 |
| 20260905115002 | 142 | 181 | 0.0 | 0.0 | 0.00 | 0.00 | 0.00 | 100 | 1013.5 |
| 20260905114457 | 143 | 181 | 0.0 | 0.0 | 0.00 | 0.00 | 0.00 | 100 | 1013.5 |
| 20260905113935 | 143 | 181 | 0.0 | 0.0 | 0.00 | 0.00 | 0.00 | 100 | 1013.5 |
| 20260905113407 | 143 | 181 | 0.0 | 0.0 | 0.00 | 0.00 | 0.00 | 100 | 1013.5 |
| 20260905113138 | 143 | 181 | 0.0 | 0.0 | 0.00 | 0.00 | 0.00 | 95 | 1013.3 |
| 20260905112629 | 143 | 181 | 0.0 | 0.0 | 0.00 | 0.00 | 0.00 | 92 | 1013.3 |
| 20260905111856 | 143 | 181 | 0.0 | 0.0 | 0.00 | 0.00 | 0.00 | 92 | 1013.4 |
| 20260905111604 | 143 | 181 | 0.0 | 0.0 | 0.00 | 0.00 | 0.00 | 92 | 1013.4 |
| 20260905110829 | 143 | 181 | 0.0 | 0.0 | 0.00 | 0.00 | 0.00 | 91 | 1013.3 |
| 20260905110326 | 143 | 181 | 0.0 | 0.0 | 0.00 | 0.00 | 0.00 | 45 | 1013.3 |
| 20260905105828 | 143 | 181 | 0.0 | 0.0 | 0.00 | 0.00 | 0.00 | 41 | 1013.2 |
| 20260905105324 | 143 | 181 | 0.0 | 0.0 | 0.00 | 0.00 | 0.00 | 41 | 1013.2 |
| 20260905104817 | 143 | 181 | 0.0 | 0.0 | 0.00 | 0.00 | 0.00 | 33 | 1013.2 |
| 20260905104254 | 143 | 181 | 0.0 | 0.0 | 0.00 | 0.00 | 0.00 | 30 | 1013.2 |
| 20260905103731 | 143 | 181 | 0.0 | 0.0 | 0.00 | 0.00 | 0.00 | 26 | 1013.2 |
| 20260905103223 | 143 | 181 | 0.0 | 0.0 | 0.00 | 0.00 | 0.00 | 23 | 1013.2 |
| 20260905102713 | 143 | 181 | 0.0 | 0.0 | 0.00 | 0.00 | 0.00 | 19 | 1013.2 |
| 20260905102212 | 143 | 181 | 0.0 | 0.0 | 0.00 | 0.00 | 0.00 | 17 | 1013.2 |
| 20260905101712 | 143 | 181 | 0.0 | 0.0 | 0.00 | 0.00 | 0.00 | 15 | 1013.3 |
| 20260905101212 | 143 | 181 | 0.0 | 0.0 | 0.00 | 0.00 | 0.00 | 15 | 1013.2 |
| 20260905100706 | 143 | 181 | 0.0 | 0.0 | 0.00 | 0.00 | 0.00 | 13 | 1013.2 |
| 20260905100204 | 143 | 181 | 0.0 | 0.0 | 0.00 | 0.00 | 0.00 | 10 | 1013.1 |
| 20260905095658 | 143 | 181 | 0.0 | 0.0 | 0.00 | 0.00 | 0.00 | 8 | 1013.1 |
| 20260905095158 | 143 | 181 | 0.0 | 0.0 | 0.00 | 0.00 | 0.00 | 7 | 1013.0 |
| 20260905094658 | 143 | 181 | 0.0 | 0.0 | 0.00 | 0.00 | 0.00 | 7 | 1013.0 |
| 20260905094145 | 143 | 181 | 0.0 | 0.0 | 0.00 | 0.00 | 0.00 | 6 | 1013.0 |
| 20260905093629 | 143 | 181 | 0.0 | 0.0 | 0.00 | 0.00 | 0.00 | 5 | 1013.0 |
| 20260905093356 | 143 | 181 | 0.0 | 0.0 | 0.00 | 0.00 | 0.00 | 5 | 1013.0 |
| 20260905092857 | 143 | 181 | 0.0 | 0.0 | 0.00 | 0.00 | 0.00 | 4 | 1013.0 |
| 20260905092106 | 143 | 181 | 0.0 | 0.0 | 0.00 | 0.00 | 0.00 | 4 | 1013.0 |
| 20260905091545 | 143 | 181 | 0.0 | 0.0 | 0.00 | 0.00 | 0.00 | 3 | 1013.0 |
| 20260905091044 | 143 | 181 | 0.0 | 0.0 | 0.00 | 0.00 | 0.00 | 2 | 1013.0 |
| 20260905090809 | 143 | 181 | 0.0 | 0.0 | 0.00 | 0.00 | 0.00 | 2 | 1013.1 |
| 20260905090530 | 143 | 181 | 0.0 | 0.0 | 0.00 | 0.00 | 0.00 | 1 | 1013.0 |
| 20260905085525 | 143 | 181 | 0.0 | 0.0 | 0.00 | 0.00 | 0.00 | 1 | 1013.1 |
| 20260905085025 | 143 | 181 | 0.0 | 0.0 | 0.00 | 0.00 | 0.00 | 100 | 1013.1 |
| 20260905084502 | 143 | 181 | 0.0 | 0.0 | 0.00 | 0.00 | 0.00 | 100 | 1013.2 |
| 20260905084214 | 143 | 181 | 0.0 | 0.0 | 0.00 | 0.00 | 0.00 | 100 | 1013.2 |
| 20260905083428 | 143 | 181 | 0.0 | 2.6 | 0.00 | 0.00 | 0.00 | 100 | 1013.2 |
| 20260905082927 | 144 | 181 | 0.0 | 2.6 | 0.00 | 0.00 | 0.00 | 100 | 1013.2 |
| 20260905082417 | 144 | 125 | 0.0 | 0.9 | 0.00 | 0.00 | 0.00 | 100 | 1013.2 |
| 20260905082148 | 144 | 125 | 0.0 | 5.2 | 0.00 | 0.00 | 0.00 | 100 | 1013.3 |
| 20260905081647 | 144 | 125 | 0.9 | 5.2 | 0.00 | 0.00 | 0.00 | 100 | 1013.3 |
| 20260905080913 | 144 | 174 | 0.0 | 0.0 | 0.00 | 0.00 | 0.00 | 100 | 1013.3 |
| 20260905080403 | 144 | 174 | 0.0 | 0.0 | 0.00 | 0.00 | 0.00 | 100 | 1013.5 |
| 20260905075848 | 143 | 174 | 0.0 | 0.0 | 0.00 | 0.00 | 0.00 | 100 | 1013.4 |
| 20260905075838 | 144 | 174 | 0.0 | 0.0 | 0.00 | 0.00 | 0.00 | 100 | 1013.4 |
| 20260905074829 | 144 | 174 | 0.0 | 0.0 | 0.00 | 0.00 | 0.00 | 100 | 1013.5 |
| 20260905074326 | 144 | 174 | 0.0 | 0.0 | 0.00 | 0.00 | 0.00 | 100 | 1013.5 |
| 20260905073821 | 144 | 174 | 0.0 | 0.0 | 0.00 | 0.00 | 0.00 | 100 | 1013.6 |
| 20260905073312 | 144 | 174 | 0.0 | 0.0 | 0.00 | 0.00 | 0.00 | 100 | 1013.6 |
| 20260905072813 | 144 | 174 | 0.0 | 0.0 | 0.00 | 0.00 | 0.00 | 100 | 1013.8 |
| 20260905072258 | 144 | 174 | 0.0 | 0.0 | 0.00 | 0.00 | 0.00 | 100 | 1013.8 |
| 20260905071739 | 144 | 174 | 0.0 | 0.9 | 0.00 | 0.00 | 0.00 | 100 | 1013.9 |
| 20260905071218 | 144 | 174 | 0.0 | 7.0 | 0.00 | 0.00 | 0.00 | 100 | 1013.9 |
| 20260905070654 | 144 | 174 | 0.0 | 7.0 | 0.00 | 0.00 | 0.00 | 100 | 1014.0 |
| 20260905070147 | 144 | 201 | 0.0 | 3.5 | 0.00 | 0.00 | 0.00 | 100 | 1014.0 |
| 20260905065648 | 144 | 201 | 0.0 | 6.1 | 0.00 | 0.00 | 0.00 | 100 | 1014.0 |
| 20260905065144 | 144 | 201 | 3.5 | 6.1 | 0.00 | 0.00 | 0.00 | 100 | 1014.1 |
| 20260905064642 | 144 | 158 | 0.0 | 3.5 | 0.00 | 0.00 | 0.00 | 100 | 1014.0 |
| 20260905064136 | 144 | 158 | 0.0 | 7.0 | 0.00 | 0.00 | 0.00 | 100 | 1014.0 |
| 20260905063630 | 144 | 136 | 0.0 | 7.0 | 0.00 | 0.00 | 0.00 | 100 | 1014.0 |
| 20260905063125 | 144 | 168 | 0.0 | 7.0 | 0.00 | 0.00 | 0.00 | 100 | 1014.0 |
| 20260905062625 | 144 | 150 | 0.9 | 7.0 | 0.00 | 0.00 | 0.00 | 100 | 1014.0 |
| 20260905062124 | 144 | 150 | 0.0 | 5.2 | 0.00 | 0.00 | 0.00 | 100 | 1014.0 |
| 20260905061612 | 144 | 157 | 1.7 | 5.2 | 0.00 | 0.00 | 0.00 | 100 | 1014.1 |
| 20260905061344 | 144 | 139 | 0.0 | 6.1 | 0.00 | 0.00 | 0.00 | 100 | 1014.1 |
| 20260905060611 | 144 | 153 | 0.0 | 6.1 | 0.00 | 0.00 | 0.00 | 100 | 1014.1 |
| 20260905060049 | 144 | 139 | 0.0 | 4.3 | 0.00 | 0.00 | 0.00 | 100 | 1014.1 |
| 20260905060030 | 144 | 81 | 0.0 | 4.3 | 0.00 | 0.00 | 0.00 | 100 | 1014.1 |
| 20260905055257 | 144 | 210 | 0.0 | 3.5 | 0.00 | 0.00 | 0.00 | 100 | 1014.1 |
| 20260905054520 | 144 | 210 | 0.9 | 4.3 | 0.00 | 0.00 | 0.00 | 100 | 1014.0 |
| 20260905054012 | 144 | 140 | 0.0 | 4.3 | 0.00 | 0.00 | 0.00 | 100 | 1014.0 |
| 20260905053501 | 144 | 125 | 0.0 | 3.5 | 0.00 | 0.00 | 0.00 | 100 | 1014.0 |
| 20260905053230 | 144 | 161 | 0.0 | 1.7 | 0.00 | 0.00 | 0.00 | 100 | 1014.0 |
| 20260905052436 | 144 | 167 | 0.0 | 0.0 | 0.00 | 0.00 | 0.00 | 100 | 1014.1 |
| 20260905052144 | 144 | 167 | 0.0 | 0.0 | 0.00 | 0.00 | 0.00 | 100 | 1014.1 |
| 20260905051353 | 144 | 167 | 0.0 | 3.5 | 0.00 | 0.00 | 0.00 | 100 | 1014.1 |
| 20260905050832 | 144 | 167 | 2.6 | 3.5 | 0.00 | 0.00 | 0.00 | 100 | 1014.1 |
| 20260905050811 | 144 | 156 | 0.0 | 2.6 | 0.00 | 0.00 | 0.00 | 100 | 1014.1 |
| 20260905045808 | 144 | 132 | 0.0 | 4.3 | 0.00 | 0.00 | 0.00 | 100 | 1014.1 |
| 20260905045257 | 144 | 191 | 0.0 | 4.3 | 0.00 | 0.00 | 0.00 | 100 | 1014.0 |
| 20260905044746 | 144 | 146 | 0.0 | 5.2 | 0.00 | 0.00 | 0.00 | 100 | 1014.1 |
| 20260905044517 | 144 | 158 | 0.0 | 6.1 | 0.00 | 0.00 | 0.00 | 100 | 1014.1 |
| 20260905044351 | 144 | 181 | 3.5 | 6.1 | 0.00 | 0.00 | 0.00 | 100 | 1013.9 |
| 20260905043237 | 145 | 177 | 0.0 | 4.3 | 0.00 | 0.00 | 0.00 | 100 | 1014.0 |
| 20260905043009 | 144 | 139 | 0.0 | 7.8 | 0.00 | 0.00 | 0.00 | 100 | 1013.9 |
| 20260905042237 | 145 | 144 | 0.0 | 7.8 | 0.00 | 0.00 | 0.00 | 100 | 1014.0 |
| 20260905041730 | 145 | 144 | 1.7 | 5.2 | 0.00 | 0.00 | 0.00 | 100 | 1014.0 |
| 20260905041659 | 145 | 101 | 0.0 | 6.1 | 0.00 | 0.00 | 0.00 | 100 | 1013.9 |
| 20260905040657 | 145 | 136 | 2.6 | 6.1 | 0.00 | 0.00 | 0.00 | 100 | 1014.0 |
| 20260905040150 | 145 | 151 | 0.0 | 5.2 | 0.00 | 0.00 | 0.00 | 100 | 1013.9 |
| 20260905035647 | 145 | 129 | 0.0 | 2.6 | 0.00 | 0.00 | 0.00 | 100 | 1013.8 |
| 20260905035143 | 145 | 129 | 0.0 | 2.6 | 0.00 | 0.00 | 0.00 | 100 | 1013.9 |
| 20260905034641 | 145 | 129 | 0.0 | 2.6 | 0.00 | 0.00 | 0.00 | 100 | 1013.8 |
| 20260905034407 | 145 | 104 | 0.9 | 5.2 | 0.00 | 0.00 | 0.00 | 100 | 1013.9 |
| 20260905033630 | 145 | 123 | 0.0 | 5.2 | 0.00 | 0.00 | 0.00 | 100 | 1013.8 |
| 20260905033130 | 145 | 118 | 0.0 | 0.9 | 0.00 | 0.00 | 0.00 | 100 | 1013.8 |
| 20260905032625 | 145 | 118 | 0.0 | 2.6 | 0.00 | 0.00 | 0.00 | 100 | 1013.6 |
| 20260905032115 | 145 | 118 | 0.9 | 2.6 | 0.00 | 0.00 | 0.00 | 100 | 1013.6 |
| 20260905031606 | 145 | 188 | 0.0 | 0.0 | 0.00 | 0.00 | 0.00 | 100 | 1013.6 |
| 20260905031057 | 145 | 188 | 0.0 | 0.0 | 0.00 | 0.00 | 0.00 | 100 | 1013.6 |
| 20260905030557 | 145 | 188 | 0.0 | 0.0 | 0.00 | 0.00 | 0.00 | 100 | 1013.5 |
| 20260905030057 | 145 | 188 | 0.0 | 0.0 | 0.00 | 0.00 | 0.00 | 100 | 1013.4 |
| 20260905025827 | 145 | 188 | 0.0 | 0.0 | 0.00 | 0.00 | 0.00 | 100 | 1013.5 |
| 20260905025057 | 145 | 188 | 0.0 | 0.0 | 0.00 | 0.00 | 0.00 | 100 | 1013.3 |
| 20260905024652 | 145 | 188 | 0.0 | 2.6 | 0.00 | 0.00 | 0.00 | 100 | 1013.2 |
| 20260905023526 | 145 | 188 | 0.0 | 2.6 | 0.00 | 0.00 | 0.00 | 100 | 1013.2 |
| 20260905023003 | 145 | 139 | 0.0 | 0.0 | 0.00 | 0.00 | 0.00 | 100 | 1013.2 |
| 20260905022501 | 145 | 139 | 0.0 | 1.7 | 0.00 | 0.00 | 0.00 | 100 | 1013.1 |
| 20260905022001 | 145 | 139 | 0.0 | 3.5 | 0.00 | 0.00 | 0.00 | 100 | 1013.0 |
| 20260905021457 | 145 | 157 | 0.0 | 3.5 | 0.00 | 0.00 | 0.00 | 100 | 1013.0 |
| 20260905020955 | 145 | 115 | 0.0 | 0.0 | 0.00 | 0.00 | 0.00 | 100 | 1012.9 |
| 20260905020433 | 145 | 115 | 0.0 | 5.2 | 0.00 | 0.00 | 0.00 | 100 | 1012.9 |
| 20260905015929 | 145 | 115 | 2.6 | 6.1 | 0.00 | 0.00 | 0.00 | 100 | 1012.8 |
| 20260905015428 | 145 | 137 | 0.0 | 6.1 | 0.00 | 0.00 | 0.00 | 100 | 1012.8 |
| 20260905014917 | 145 | 167 | 2.6 | 5.2 | 0.00 | 0.00 | 0.00 | 100 | 1012.8 |
| 20260905014416 | 145 | 158 | 0.0 | 5.2 | 0.00 | 0.00 | 0.00 | 100 | 1012.8 |
| 20260905013913 | 145 | 130 | 0.0 | 4.3 | 0.00 | 0.00 | 0.00 | 100 | 1012.8 |
| 20260905013357 | 145 | 174 | 1.7 | 7.0 | 0.00 | 0.00 | 0.00 | 100 | 1012.8 |
| 20260905012843 | 145 | 101 | 0.9 | 7.0 | 0.00 | 0.00 | 0.00 | 100 | 1012.5 |
| 20260905012323 | 145 | 172 | 0.0 | 5.2 | 0.00 | 0.00 | 0.00 | 100 | 1012.5 |
| 20260905011802 | 145 | 116 | 0.0 | 2.6 | 0.00 | 0.00 | 0.00 | 100 | 1012.5 |
| 20260905011256 | 145 | 116 | 0.0 | 6.1 | 0.00 | 0.00 | 0.00 | 100 | 1012.4 |
| 20260905010756 | 145 | 170 | 4.3 | 6.1 | 0.00 | 0.00 | 0.00 | 100 | 1012.3 |
| 20260905010257 | 145 | 111 | 2.6 | 4.3 | 0.00 | 0.00 | 0.00 | 100 | 1012.2 |
| 20260905005757 | 146 | 133 | 1.7 | 3.5 | 0.00 | 0.00 | 0.00 | 100 | 1012.1 |
| 20260905005243 | 146 | 165 | 0.0 | 5.2 | 0.00 | 0.00 | 0.00 | 100 | 1012.1 |
| 20260905004743 | 146 | 147 | 0.0 | 7.8 | 0.00 | 0.00 | 0.00 | 100 | 1012.1 |
| 20260905004243 | 146 | 126 | 4.3 | 7.8 | 0.00 | 0.00 | 0.00 | 100 | 1012.1 |
| 20260905003719 | 146 | 139 | 0.0 | 5.2 | 0.00 | 0.00 | 0.00 | 100 | 1012.0 |
| 20260905003157 | 146 | 158 | 2.6 | 7.0 | 0.00 | 0.00 | 0.00 | 100 | 1012.0 |
| 20260905002928 | 146 | 111 | 2.6 | 7.0 | 0.00 | 0.00 | 0.00 | 100 | 1011.8 |
| 20260905002428 | 146 | 151 | 2.6 | 6.1 | 0.00 | 0.00 | 0.00 | 100 | 1011.8 |
| 20260905001912 | 146 | 118 | 3.5 | 8.7 | 0.00 | 0.00 | 0.00 | 100 | 1011.8 |
| 20260905001143 | 146 | 140 | 3.5 | 8.7 | 0.00 | 0.00 | 0.00 | 100 | 1011.7 |
| 20260905001138 | 146 | 105 | 1.7 | 8.7 | 0.00 | 0.00 | 0.00 | 100 | 1011.8 |
| 20260905000139 | 146 | 171 | 4.3 | 8.7 | 0.00 | 0.00 | 0.00 | 100 | 1011.7 |
| 20260904235639 | 146 | 144 | 0.9 | 9.6 | 0.00 | 0.00 | 0.00 | 100 | 1011.6 |
| 20260904235139 | 146 | 171 | 4.3 | 9.6 | 0.00 | 0.00 | 0.00 | 100 | 1011.6 |
| 20260904234637 | 146 | 156 | 4.3 | 9.6 | 0.00 | 0.00 | 0.00 | 100 | 1011.5 |
| 20260904234135 | 146 | 144 | 3.5 | 8.7 | 0.00 | 0.00 | 0.00 | 100 | 1011.5 |
| 20260904233903 | 147 | 161 | 3.5 | 9.6 | 0.00 | 0.00 | 0.00 | 100 | 1011.4 |
| 20260904233628 | 147 | 170 | 5.2 | 11.3 | 0.00 | 0.00 | 0.00 | 100 | 1011.3 |
| 20260904232626 | 147 | 147 | 3.5 | 11.3 | 0.00 | 0.00 | 0.00 | 100 | 1011.3 |
| 20260904232120 | 147 | 154 | 5.2 | 8.7 | 0.00 | 0.00 | 0.00 | 100 | 1011.4 |
| 20260904231620 | 147 | 147 | 1.7 | 7.8 | 0.00 | 0.00 | 0.00 | 100 | 1011.4 |
| 20260904231119 | 147 | 139 | 4.3 | 7.8 | 0.00 | 0.00 | 0.00 | 100 | 1011.5 |
| 20260904230619 | 147 | 158 | 3.5 | 7.8 | 0.00 | 0.00 | 0.00 | 100 | 1011.5 |
| 20260904230118 | 147 | 165 | 4.3 | 7.8 | 0.00 | 0.00 | 0.00 | 100 | 1011.5 |
| 20260904225616 | 147 | 146 | 4.3 | 7.0 | 0.00 | 0.00 | 0.00 | 100 | 1011.6 |
| 20260904225117 | 147 | 184 | 4.3 | 7.0 | 0.00 | 0.00 | 0.00 | 100 | 1011.6 |
| 20260904224616 | 147 | 102 | 2.6 | 7.8 | 0.00 | 0.00 | 0.00 | 100 | 1011.6 |
| 20260904224116 | 147 | 167 | 3.5 | 7.8 | 0.00 | 0.00 | 0.00 | 100 | 1011.5 |
| 20260904223615 | 148 | 156 | 3.5 | 8.7 | 0.00 | 0.00 | 0.00 | 100 | 1011.6 |
| 20260904223117 | 147 | 146 | 5.2 | 9.6 | 0.00 | 0.00 | 0.00 | 100 | 1011.8 |
| 20260904222617 | 148 | 127 | 4.3 | 9.6 | 0.00 | 0.00 | 0.00 | 100 | 1011.8 |
| 20260904222115 | 147 | 135 | 3.5 | 8.7 | 0.00 | 0.00 | 0.00 | 100 | 1011.8 |
| 20260904221615 | 147 | 194 | 5.2 | 8.7 | 0.00 | 0.00 | 0.00 | 100 | 1011.8 |
| 20260904221114 | 148 | 171 | 0.0 | 8.7 | 0.00 | 0.00 | 0.00 | 100 | 1011.7 |
| 20260904220610 | 148 | 147 | 1.7 | 8.7 | 0.00 | 0.00 | 0.00 | 100 | 1011.8 |
| 20260904220058 | 147 | 168 | 5.2 | 8.7 | 0.00 | 0.00 | 0.00 | 100 | 1011.9 |
| 20260904215828 | 147 | 137 | 3.5 | 9.6 | 0.00 | 0.00 | 0.00 | 100 | 1011.9 |
| 20260904215057 | 147 | 208 | 5.2 | 9.6 | 0.00 | 0.00 | 0.00 | 100 | 1011.9 |
| 20260904214829 | 147 | 119 | 1.7 | 8.7 | 0.00 | 0.00 | 0.00 | 100 | 1012.0 |
| 20260904214059 | 148 | 181 | 5.2 | 7.8 | 0.00 | 0.00 | 0.00 | 100 | 1012.1 |
| 20260904213558 | 147 | 161 | 4.3 | 7.8 | 0.00 | 0.00 | 0.00 | 100 | 1012.1 |
| 20260904213057 | 148 | 188 | 1.7 | 8.7 | 0.00 | 0.00 | 0.00 | 100 | 1012.1 |
| 20260904212547 | 148 | 156 | 3.5 | 8.7 | 0.00 | 0.00 | 0.00 | 100 | 1012.2 |